Regional Weather Roundup
Issued by NWS Memphis, TN

Home | Current Version | Previous Version | Text Only | Print | Product List | Glossary On
Versions: 1 2 3 4 5 6 7 8 9 10 11 12 13 14 15 16 17 18 19 20 21 22 23 24 25 26 27 28 29 30 31 32 33 34 35 36 37 38 39 40 41 42 43 44 45 46 47 48 49 50
000
ASUS44 KMEG 272210
RWRMEG
MEMPHIS CWA HOURLY WEATHER ROUNDUP
NATIONAL WEATHER SERVICE MEMPHIS TN
500 PM CDT MON APR 27 2015

...WEST TENNESSEE...

CITY           SKY/WX    TMP DP  RH WIND       PRES   REMARKS
MEMPHIS INTL   PTSUNNY   68  40  35 E16G22    29.93S
NWS MEMPHIS      N/A     66 N/A N/A MISG        N/A
JACKSON        SUNNY     67  42  40 NE14G22   29.94F
LEXINGTON      SUNNY     64  36  34 N10       29.93F
SAVANNAH       SUNNY     70  32  24 NE8       29.93S
DYERSBURG      SUNNY     66  34  30 NE13      29.96F
UNION CITY     SUNNY     64  32  29 NE14      29.96F
PARIS          SUNNY     63  36  36 N14       29.97S


...EASTERN ARKANSAS...

CITY           SKY/WX    TMP DP  RH WIND       PRES   REMARKS
JONESBORO      SUNNY     63  42  46 NE20G30   29.94F
WEST MEMPHIS   MOSUNNY   65  43  44 NE12      29.91F
BATESVILLE     SUNNY     64  37  36 E15G22    29.94F
NEWPORT        SUNNY     66  39  37 NE21      29.95F
WALNUT RIDGE   MOSUNNY   64  39  39 NE20      29.96F
BLYTHEVILLE    SUNNY     67  40  37 NE18G24   29.95F
SEARCY         MOSUNNY   64  41  42 E16G25    29.95F
STUTTGART      MOSUNNY   64  43  45 NE17      29.93S
PINE BLUFF     MOSUNNY   65  46  50 NE17G25   29.90F
MONTICELLO     SUNNY     70  46  42 NE15      29.87S


...NORTH MISSISSIPPI...

CITY           SKY/WX    TMP DP  RH WIND       PRES   REMARKS
TUPELO         MOSUNNY   67  40  37 E13       29.89F
OXFORD         MOSUNNY   66  41  39 E13G20    29.92S
OLIVE BRANCH   MOSUNNY   64  43  45 NE14G20   29.93S
TUNICA         SUNNY     66  43  42 NE14      29.92F
CLARKSDALE     SUNNY     66  45  45 NE16      29.91R
CORINTH        MOSUNNY   68  41  37 NE10G16   29.91F
GREENWOOD      MOSUNNY   71  44  37 NE14      29.86S
COLUMBUS       PTSUNNY   69  43  39 NE12      29.87S
STARKVILLE     FAIR      64  45  48 NE8       29.88R
GOLDEN TRIANGL SUNNY     68  45  42 E8        29.86F


...SOUTHEAST MISSOURI...

CITY           SKY/WX    TMP DP  RH WIND       PRES   REMARKS
WEST PLAINS    PTSUNNY   63  31  30 E12G20    29.98F
POPLAR BLUFF   PTSUNNY   65  38  36 NE14G23   29.97F
CAPE GIRARDEAU MOSUNNY   66  40  38 N14       29.99F


...NORTHWEST ALABAMA...

CITY           SKY/WX    TMP DP  RH WIND       PRES   REMARKS
MUSCLE SHOALS  SUNNY     67  41  38 VRB5      29.92F


...MIDDLE TENNESSEE...

CITY           SKY/WX    TMP DP  RH WIND       PRES   REMARKS
NASHVILLE      MOSUNNY   68  40  35 N9        29.95S
CLARKSVILLE    SUNNY     66  35  31 N16       29.96F
COLUMBIA       SUNNY     66  32  28 NE12      29.92F


...WESTERN KENTUCKY...

CITY           SKY/WX    TMP DP  RH WIND       PRES   REMARKS
PADUCAH        MOSUNNY   66  39  37 NE18      29.98F
FORT CAMPBELL  SUNNY     64  37  37 N13       29.96F


...CENTRAL ARKANSAS...

CITY           SKY/WX    TMP DP  RH WIND       PRES   REMARKS
LITTLE ROCK    PTSUNNY   64  39  39 E15       29.94R


SKY/WX REPORTED AS FAIR MEANS FEW OR NO CLOUDS BELOW
12 THOUSAND FEET.



USA.gov is the U.S. government's official web portal to all federal, state and local government web resources and services.